TimeCST,TemperatureF,Dew PointF,Humidity,Sea Level PressureIn,VisibilityMPH,Wind Direction,Wind SpeedMPH,Gust SpeedMPH,PrecipitationIn,Events,Conditions,WindDirDegrees,DateUTC
12:15 AM,33.8,24.8,70,30.10,10.0,West,6.9,-,N/A,,Overcast,280,2013-02-12 06:15:00
12:35 AM,32.0,26.6,80,30.08,7.0,North,4.6,-,N/A,Snow,Light Snow,350,2013-02-12 06:35:00
12:55 AM,32.0,26.6,80,30.07,10.0,North,5.8,-,N/A,,Overcast,360,2013-02-12 06:55:00
1:15 AM,33.8,26.6,75,30.05,10.0,NE,6.9,-,N/A,,Overcast,40,2013-02-12 07:15:00
1:35 AM,33.8,26.6,75,30.06,10.0,NNE,4.6,-,N/A,,Overcast,30,2013-02-12 07:35:00
1:55 AM,33.8,26.6,75,30.06,10.0,Calm,Calm,-,N/A,,Overcast,0,2013-02-12 07:55:00
2:15 AM,33.8,28.4,81,30.05,7.0,East,4.6,-,N/A,Snow,Light Snow,90,2013-02-12 08:15:00
2:35 AM,33.8,28.4,81,30.04,5.0,ENE,6.9,-,N/A,Snow,Light Snow,70,2013-02-12 08:35:00
3:15 AM,32.0,30.2,93,30.03,4.0,NNE,10.4,-,N/A,Snow,Light Snow,30,2013-02-12 09:15:00
3:35 AM,32.0,30.2,93,30.03,10.0,North,8.1,-,N/A,Rain,Light Rain,10,2013-02-12 09:35:00
3:55 AM,32.0,32.0,100,30.03,10.0,NNE,6.9,-,N/A,Rain,Light Rain,20,2013-02-12 09:55:00
4:15 AM,32.0,32.0,100,30.03,10.0,North,6.9,-,N/A,,Overcast,10,2013-02-12 10:15:00
4:35 AM,33.8,32.0,93,30.01,10.0,NNE,9.2,-,N/A,Rain,Light Rain,20,2013-02-12 10:35:00
4:55 AM,32.0,32.0,100,30.01,3.0,NNE,6.9,-,N/A,Snow,Light Snow,30,2013-02-12 10:55:00
5:15 AM,32.0,32.0,100,30.01,1.2,NE,5.8,-,0.02,Snow,Light Snow,50,2013-02-12 11:15:00
5:35 AM,32.0,32.0,100,30.01,1.2,NE,6.9,-,0.04,Snow,Light Snow,50,2013-02-12 11:35:00
6:15 AM,32.0,32.0,100,30.00,1.0,ENE,4.6,-,0.01,Snow,Light Snow,70,2013-02-12 12:15:00
6:35 AM,32.0,32.0,100,29.99,1.5,East,6.9,-,0.02,Snow,Light Snow,90,2013-02-12 12:35:00
6:55 AM,32.0,32.0,100,29.99,1.0,East,6.9,-,0.03,Snow,Light Snow,90,2013-02-12 12:55:00
7:15 AM,32.0,32.0,100,30.00,1.2,East,8.1,-,0.02,Snow,Light Snow,90,2013-02-12 13:15:00
7:35 AM,32.0,32.0,100,30.00,1.2,East,9.2,-,0.03,Snow,Light Snow,80,2013-02-12 13:35:00
7:55 AM,32.0,32.0,100,30.00,1.0,NE,8.1,-,0.05,Snow,Light Snow,50,2013-02-12 13:55:00
8:15 AM,32.0,32.0,100,30.01,0.8,ENE,6.9,-,0.02,Snow,Light Snow,60,2013-02-12 14:15:00
8:35 AM,32.0,32.0,100,30.03,0.2,East,9.2,-,0.04,Snow,Snow,80,2013-02-12 14:35:00
9:15 AM,32.0,32.0,100,30.02,1.2,NE,8.1,-,0.01,Snow,Light Snow,40,2013-02-12 15:15:00
9:35 AM,32.0,32.0,100,30.01,0.8,NE,11.5,-,0.01,Snow,Light Snow,50,2013-02-12 15:35:00
10:15 AM,32.0,32.0,100,30.03,1.5,NNE,8.1,-,N/A,Snow,Light Snow,30,2013-02-12 16:15:00
10:35 AM,32.0,32.0,100,30.04,0.8,NNE,9.2,-,N/A,Snow,Light Snow,30,2013-02-12 16:35:00
10:55 AM,32.0,32.0,100,30.04,0.8,NNE,9.2,-,N/A,Snow,Light Snow,30,2013-02-12 16:55:00
11:15 AM,32.0,32.0,100,30.04,2.0,NE,8.1,-,N/A,Snow,Light Snow,40,2013-02-12 17:15:00
11:35 AM,32.0,32.0,100,30.04,1.5,NNE,6.9,-,N/A,Snow,Light Snow,30,2013-02-12 17:35:00
11:55 AM,32.0,32.0,100,30.05,1.5,NNE,5.8,-,N/A,Snow,Light Snow,20,2013-02-12 17:55:00
12:15 PM,32.0,32.0,100,30.05,1.5,NNE,4.6,-,0.01,,Overcast,20,2013-02-12 18:15:00
12:35 PM,32.0,32.0,100,30.05,2.0,North,6.9,-,0.01,,Overcast,350,2013-02-12 18:35:00
12:55 PM,32.0,32.0,100,30.05,0.5,North,6.9,-,0.01,Snow,Light Snow,350,2013-02-12 18:55:00
1:15 PM,32.0,32.0,100,30.05,1.0,North,10.4,-,N/A,Snow,Light Snow,350,2013-02-12 19:15:00
1:35 PM,32.0,32.0,100,30.04,1.0,North,9.2,-,N/A,Snow,Light Snow,360,2013-02-12 19:35:00
1:55 PM,32.0,32.0,100,30.04,3.0,North,9.2,-,N/A,Rain,Light Rain,360,2013-02-12 19:55:00
2:15 PM,32.0,32.0,100,30.04,2.5,North,9.2,-,N/A,Snow,Light Snow,350,2013-02-12 20:15:00
2:35 PM,32.0,32.0,100,30.03,1.2,North,8.1,-,N/A,Snow,Light Snow,350,2013-02-12 20:35:00
2:55 PM,32.0,32.0,100,30.03,2.5,North,5.8,-,N/A,Snow,Light Snow,350,2013-02-12 20:55:00
3:15 PM,32.0,32.0,100,30.03,4.0,North,4.6,-,N/A,Rain,Light Rain,360,2013-02-12 21:15:00
3:35 PM,32.0,32.0,100,30.03,4.0,North,6.9,-,N/A,Snow,Light Snow,360,2013-02-12 21:35:00
3:55 PM,32.0,32.0,100,30.03,7.0,North,3.5,-,N/A,,Overcast,10,2013-02-12 21:55:00
4:15 PM,33.8,32.0,93,30.03,10.0,NE,3.5,-,N/A,,Mostly Cloudy,50,2013-02-12 22:15:00
4:35 PM,33.8,32.0,93,30.03,10.0,North,3.5,-,N/A,,Mostly Cloudy,350,2013-02-12 22:35:00
5:15 PM,33.8,32.0,93,30.03,10.0,NNW,5.8,-,N/A,,Overcast,330,2013-02-12 23:15:00
5:35 PM,32.0,32.0,100,30.03,10.0,NNW,4.6,-,N/A,,Overcast,340,2013-02-12 23:35:00
5:55 PM,32.0,32.0,100,30.03,10.0,NW,3.5,-,N/A,,Overcast,320,2013-02-12 23:55:00
6:15 PM,32.0,30.2,93,30.04,10.0,NW,3.5,-,N/A,,Mostly Cloudy,310,2013-02-13 00:15:00
6:35 PM,32.0,32.0,100,30.04,10.0,Calm,Calm,-,N/A,,Overcast,0,2013-02-13 00:35:00
6:55 PM,32.0,30.2,93,30.04,10.0,West,4.6,-,N/A,,Scattered Clouds,270,2013-02-13 00:55:00
7:15 PM,32.0,30.2,93,30.05,10.0,WSW,3.5,-,N/A,,Scattered Clouds,250,2013-02-13 01:15:00
7:35 PM,30.2,30.2,100,30.04,4.0,SW,4.6,-,N/A,,Clear,220,2013-02-13 01:35:00
7:55 PM,26.6,26.6,100,30.05,7.0,SW,5.8,-,N/A,,Clear,220,2013-02-13 01:55:00
8:15 PM,28.4,26.6,93,30.05,7.0,WSW,6.9,-,N/A,,Clear,250,2013-02-13 02:15:00
8:35 PM,26.6,26.6,100,30.05,7.0,WSW,8.1,-,N/A,,Clear,240,2013-02-13 02:35:00
8:55 PM,26.6,26.6,100,30.06,7.0,WSW,9.2,-,N/A,,Clear,240,2013-02-13 02:55:00
9:15 PM,28.4,26.6,93,30.07,7.0,WSW,8.1,-,N/A,,Clear,250,2013-02-13 03:15:00
9:35 PM,26.6,26.6,100,30.07,7.0,WSW,6.9,-,N/A,,Clear,250,2013-02-13 03:35:00
9:55 PM,26.6,26.6,100,30.06,7.0,WSW,8.1,-,N/A,,Clear,240,2013-02-13 03:55:00
10:15 PM,26.6,26.6,100,30.07,7.0,WSW,8.1,-,N/A,,Clear,250,2013-02-13 04:15:00
10:35 PM,26.6,26.6,100,30.07,7.0,SW,6.9,-,N/A,,Clear,230,2013-02-13 04:35:00
10:55 PM,26.6,24.8,93,30.06,7.0,WSW,6.9,-,N/A,,Clear,240,2013-02-13 04:55:00
11:15 PM,26.6,24.8,93,30.06,10.0,WSW,6.9,-,N/A,,Clear,240,2013-02-13 05:15:00
11:35 PM,24.8,23.0,93,30.06,7.0,SW,6.9,-,N/A,,Clear,230,2013-02-13 05:35:00
11:55 PM,24.8,23.0,93,30.06,10.0,SW,9.2,-,N/A,,Clear,230,2013-02-13 05:55:00